Regional Weather Roundup
Issued by NWS Charleston, SC

Current Version | Previous Version | Graphics & Text | Print | Product List | Glossary On
Versions: 1 2 3 4 5 6 7 8 9 10 11 12 13 14 15 16 17 18 19 20 21 22 23 24 25 26 27 28 29 30 31 32 33 34 35 36 37 38 39 40 41 42 43 44 45 46 47 48 49 50
000 ASUS42 KCHS 220910 RWRCHS REGIONAL WEATHER ROUNDUP NATIONAL WEATHER SERVICE CHARLESTON SC 500 AM EDT TUE JUL 22 2014 NOTE: "FAIR" INDICATES FEW OR NO CLOUDS BELOW 12,000 FEET WITH NO SIGNIFICANT WEATHER AND/OR OBSTRUCTIONS TO VISIBILITY. NOT ALL STATIONS ARE QUALITY CONTROLLED BY THE NATIONAL WEATHER SERVICE. USE DATA WITH CAUTION...ESPECIALLY DEWPOINT OBSERVATIONS. SCZ027-030-031-034>040-042>050-221000- ...SOUTH CAROLINA... CITY SKY/WX TMP DP RH WIND PRES REMARKS N CHARLESTON MOCLDY 76 73 91 N5 30.05R FOG WATERFRONT PRK N/A 79 N/A N/A W3 N/A FORT JOHNSON NOT AVBL MOUNT PLEASANT FAIR 75 75 100 CALM 30.05R FOG JOHNS ISLAND MOSUNNY 75 68 78 CALM 30.05R HAZE PINOPOLIS N/A 75 73 94 E5 30.00R MONCKS CORNER N/A 75 75 100 CALM 30.05S FOG SUMMERVILLE CLOUDY 73 73 100 NE3 30.05F FOG BEAUFORT MCAS FOG 75 73 93 NE5 30.04R VSB 1/2 BEAUFORT ARPT FAIR 75 75 100 CALM 30.03R FOG HILTON HEAD IS PTCLDY 73 73 100 CALM 30.05R FOG GEORGETOWN NOT AVBL WALTERBORO NOT AVBL ORANGEBURG CLOUDY 73 72 96 NE7 30.06S FOG BARNWELL CLOUDY 73 72 94 NE5 30.07R AIKEN CLOUDY 72 72 100 NE8 30.11R FOG MANNING CLOUDY 73 N/A N/A MISG 30.07S VSB 3/4 KINGSTREE NOT AVBL COLUMBIA LGT RAIN 75 71 87 NW5 30.07S SUMTER FOG 73 73 100 NE5 30.07R VSB 1 FLORENCE FOG 73 72 96 NE5 30.08S VSB 1/4 MYRTLE BEACH N/A 73 72 94 N7 30.07R N MYRTLE BEACH CLOUDY 73 71 93 N5 30.07R $$ GAZ063-065-086>088-099>101-113>116-118-119-134-136>141-150-221000- ...GEORGIA... CITY SKY/WX TMP DP RH WIND PRES REMARKS SAVANNAH ARPT CLOUDY 73 71 93 N5 30.05R FOG HUNTER AAF CLOUDY 73 73 100 NW2 30.02R FORT STEWART CLOUDY 74 73 95 NW1 30.04R STATESBORO NOT AVBL SYLVANIA CLOUDY 74 74 100 CALM 30.05F FOG CLAXTON CLOUDY N/A N/A N/A CALM 30.05R HAZE THOMSON CLOUDY 74 74 100 NE5 30.12S AUGUSTA-BUSH LGT RAIN 73 71 93 E5 30.06R AUGUSTA-DANIEL CLOUDY 73 71 93 NE3 30.08R SWAINSBORO CLOUDY 73 73 100 CALM 30.06S VIDALIA N/A 72 72 100 N5 30.05S FOG ALMA MOCLDY 71 70 96 CALM 30.04R WAYCROSS CLOUDY 75 75 100 CALM 30.04R JESUP NOT AVBL BRUNSWICK PTCLDY 72 70 94 CALM 30.05R SAINT SIMONS PTCLDY 73 72 96 NW3 30.04R $$ SCZ027-028-034-036>038-045-046-048>050-GAZ119-141-221000- ...LAKE AND SUPPLEMENTAL COASTAL OBSERVATIONS... STATION/POSITION TIME TEMP WIND PRES WAVE SWELL AIR SEA DIR/SP/G HT/PER HT/PER/DIR (UTC) (F) (DEG/KT/KT) (MB) (FT/S) (FT/S/D) UPR LAKE MARION NOT AVBL WINYAH BAY 0800 76 320/ 3 1017.0S LAKE MURRAY 0800 73 40/ 1/ 4 1018.3S ACE BASIN NERRS 0800 75 CALM 1017.0S FORT PULASKI 0900 76 340/ 5/ 8 1017.2R SAPELO ISLAND 0800 75 320/ 2 1017.0R $$ ANZ835-935-AMZ111-154-330-350-352-354-374-450-454-472-221000- ...C-MAN AND BUOY OBSERVATIONS... STATION/POSITION TIME TEMP WIND PRES WAVE SWELL AIR SEA DIR/SP/G HT/PER HT/PER/DIR (UTC) (F) (DEG/KT/KT) (MB) (FT/S) (FT/S/D) FOLLY BEACH CMAN 0800 80 190/ 8/ 9 1017.4F BUOY 41004 0900 82 82 170/ 8/ 10 1016.7R 3/ 8 3/ 8 BUOY 41008 0900 79 83 190/ 6/ 8 1016.6R 2/ 8 2/110/ 8 5E ST. MARYS GA 0900 83 N/A 2/ 8 FRYING PAN BUOY NOT AVBL BUOY 41025 0900 VRB 17/ 21 1019.3F 3/ 8 2/130/ 8 CAPE LOOKOUT NC 0800 78 260/ 4/ 4 1018.9F BUOY 41002 0832 81 82 190/ 14/ 16 1019.9F 4/ 7 2/140/ 7 BUOY 41010 0900 82 83 140/ 12/ 14 1017.1F 4/ 8 3/110/ 8 BUOY 41012 NOT AVBL ST AUGUSTINE FL 0900 76 280/ 3/ 3 1017.3R CAPERS NEARSHORE 0800 81 140/ 6/ 8 N/A FRIPP NEARSHORE NOT AVBL $$

USA.gov is the U.S. government's official web portal to all federal, state and local government web resources and services.